[[{"header":{"parameterUnit":"m.s-1","parameterCategory":2,"la1":30.2992,"la2":30.254,"lo1":-89.0895,"lo2":-89.0443,"dy":0.0025,"dx":0.0025,"nx":19,"ny":19,"refTime":"2026-04-19T03:00:00:Z","depth":"0","parameterNumber":2,"parameterNumberName":"U-component_of_CURRENTS"},"data":[0,0,0,-0.3109,-0.311,-0.3145,-0.3145,-0.3144,-0.3144,0,0,0,0,0,0,0,0,0,0,0,-0.3084,-0.3084,-0.3108,-0.311,-0.3145,-0.3145,-0.3144,-0.3144,0,0,0,0,0,0,0,0,0,0,0,-0.3084,-0.3084,-0.3084,-0.311,-0.3145,-0.3145,-0.3144,-0.3126,0,0,0,0,0,0,0,0,0,0,-0.3097,-0.3074,-0.3084,-0.3084,-0.311,-0.3145,-0.3145,-0.3126,-0.3127,-0.3119,0,-0.3126,0,-0.3145,-0.3144,-0.3144,0,0,0,-0.3098,-0.3073,-0.3098,-0.3085,-0.3111,-0.3145,-0.3126,-0.3127,-0.3129,-0.3121,-0.3126,-0.3127,-0.3145,-0.3144,-0.3144,-0.3172,-0.3173,0,0,-0.3096,-0.3075,-0.3096,-0.3099,-0.3121,-0.3125,-0.3127,-0.3128,-0.312,-0.3126,-0.3127,-0.3145,-0.3144,-0.3144,-0.3172,-0.3173,0,0,0,-0.3098,-0.3073,-0.3098,-0.3098,-0.3114,-0.3126,-0.3128,-0.312,-0.3133,-0.3128,-0.3145,-0.3144,-0.3144,-0.3172,-0.3172,-0.3211,0,0,0,-0.3097,-0.3076,-0.3097,-0.3083,-0.3114,-0.3122,-0.3119,-0.3132,-0.3134,-0.3145,-0.3144,-0.3144,-0.3172,-0.3172,-0.3209,-0.3198,0,0,0,-0.3082,-0.3074,-0.3082,-0.3082,-0.3106,-0.3123,-0.3134,-0.3133,-0.3145,-0.3144,-0.3144,-0.3171,-0.3172,-0.3208,-0.3196,-0.3208,0,0,0,-0.3054,-0.3071,-0.3081,-0.3113,-0.3106,-0.3162,-0.3135,-0.316,-0.3164,-0.3144,-0.3172,-0.3172,-0.3207,-0.3195,-0.3207,-0.3105,-0.3102,0,0,-0.3066,-0.3071,-0.3096,-0.3108,-0.3165,-0.3156,-0.3202,-0.319,-0.317,-0.3165,-0.3166,-0.321,-0.3196,-0.3208,-0.3147,-0.3142,0,0,0,-0.3096,-0.3105,-0.3127,-0.316,-0.3203,-0.3222,-0.3226,-0.3219,-0.3212,-0.3179,-0.3214,-0.3203,-0.3209,-0.3146,-0.3143,-0.3085,-0.3176,-0.3176,-0.3175,-0.3054,-0.3104,-0.3135,-0.3192,-0.3229,-0.3266,-0.3272,-0.3259,-0.3252,-0.3252,-0.3239,-0.3275,-0.321,-0.3206,-0.3148,-0.3258,-0.3259,-0.3259,-0.3259,-0.3052,-0.3056,-0.3126,-0.317,-0.3219,-0.325,-0.3293,-0.3292,-0.3292,-0.3276,-0.3282,-0.3195,-0.3204,-0.3144,-0.3261,-0.3261,-0.3261,-0.326,-0.326,-0.2991,-0.2995,-0.304,-0.3098,-0.3152,-0.3222,-0.3247,-0.3296,-0.3297,-0.3309,-0.3235,-0.3233,-0.3174,-0.3322,-0.3322,-0.3322,-0.3322,-0.3322,-0.3322,-0.2885,-0.2934,-0.2937,-0.3025,-0.3045,-0.3116,-0.322,-0.3234,-0.3253,-0.3246,-0.3245,-0.3169,-0.3294,-0.3284,-0.3323,-0.3323,-0.3323,-0.3322,-0.3322,-0.2761,-0.2796,-0.2796,-0.2815,-0.289,-0.2902,-0.3069,-0.3115,-0.3161,-0.3139,-0.3088,-0.321,-0.318,-0.3181,-0.3168,-0.3174,-0.3174,-0.3174,-0.3174,-0.2644,-0.2678,-0.2632,-0.2635,-0.2678,-0.2786,-0.2764,-0.285,-0.2926,-0.2915,-0.2998,-0.2961,-0.2969,-0.2925,-0.2932,-0.2914,-0.2856,-0.2855,-0.2855,-0.2525,-0.2552,-0.2461,-0.2512,-0.256,-0.2611,-0.2557,-0.2634,-0.2758,-0.2841,-0.2941,-0.2955,-0.2904,-0.2921,-0.2854,-0.2868,-0.284,0,0]},{"header":{"parameterUnit":"m.s-1","parameterCategory":2,"la1":30.2992,"la2":30.254,"lo1":-89.0895,"lo2":-89.0443,"dy":0.0025,"dx":0.0025,"nx":19,"ny":19,"refTime":"2026-04-19T03:00:00:Z","depth":"0","parameterNumber":3,"parameterNumberName":"V-component_of_CURRENTS"},"data":[0,0,0,-0.0708,-0.0706,-0.0603,-0.0602,-0.044,-0.0439,0,0,0,0,0,0,0,0,0,0,0,-0.0744,-0.0744,-0.0708,-0.0706,-0.0603,-0.0602,-0.044,-0.0439,0,0,0,0,0,0,0,0,0,0,0,-0.0745,-0.0744,-0.0744,-0.0706,-0.0603,-0.0602,-0.0441,-0.0521,0,0,0,0,0,0,0,0,0,0,-0.0623,-0.0674,-0.0744,-0.0744,-0.0705,-0.0603,-0.0602,-0.0525,-0.0516,-0.0484,0,-0.0483,0,-0.0464,-0.0429,-0.0429,0,0,0,-0.0685,-0.0682,-0.0652,-0.0744,-0.0705,-0.0604,-0.0644,-0.052,-0.051,-0.0472,-0.0481,-0.0474,-0.0462,-0.0428,-0.0427,-0.0328,-0.0328,0,0,-0.0691,-0.0721,-0.066,-0.0646,-0.0695,-0.0647,-0.0641,-0.0514,-0.0511,-0.048,-0.0471,-0.0459,-0.0427,-0.0426,-0.0328,-0.0328,0,0,0,-0.0721,-0.0725,-0.0698,-0.0653,-0.0641,-0.0645,-0.0637,-0.0517,-0.0508,-0.0469,-0.0457,-0.0426,-0.0425,-0.0328,-0.0328,-0.0426,0,0,0,-0.0724,-0.0744,-0.0702,-0.0717,-0.0644,-0.0584,-0.0643,-0.0517,-0.0502,-0.0458,-0.0426,-0.0423,-0.0328,-0.0328,-0.0423,-0.0466,0,0,0,-0.0746,-0.0746,-0.0739,-0.0719,-0.0683,-0.0585,-0.0568,-0.0513,-0.0495,-0.0428,-0.0423,-0.0328,-0.0328,-0.0421,-0.0462,-0.0434,0,0,0,-0.0771,-0.0795,-0.0741,-0.076,-0.0685,-0.0644,-0.0569,-0.0525,-0.0476,-0.0426,-0.0328,-0.0328,-0.042,-0.0459,-0.0433,-0.0363,-0.0365,0,0,-0.0821,-0.0802,-0.0813,-0.0763,-0.0761,-0.0655,-0.0629,-0.0535,-0.046,-0.0363,-0.0361,-0.0424,-0.0461,-0.0434,-0.0361,-0.0364,0,0,0,-0.0842,-0.0857,-0.0845,-0.0829,-0.0769,-0.0711,-0.0608,-0.0548,-0.0461,-0.0434,-0.0396,-0.0415,-0.0395,-0.0348,-0.0351,-0.0084,-0.0328,-0.0328,-0.0328,-0.0945,-0.0914,-0.0938,-0.0894,-0.0855,-0.074,-0.068,-0.0574,-0.0501,-0.0475,-0.0475,-0.0495,-0.0447,-0.0448,-0.0175,-0.045,-0.0451,-0.0451,-0.0451,-0.1045,-0.1068,-0.1015,-0.1032,-0.0945,-0.0902,-0.0745,-0.0676,-0.0565,-0.0521,-0.0496,-0.043,-0.0456,-0.0163,-0.0457,-0.0456,-0.0455,-0.0455,-0.0454,-0.1129,-0.1138,-0.1136,-0.1147,-0.1112,-0.1004,-0.0947,-0.0811,-0.066,-0.0638,-0.0517,-0.0514,-0.0269,-0.0609,-0.0609,-0.0609,-0.0609,-0.0609,-0.0609,-0.122,-0.1216,-0.1271,-0.1266,-0.127,-0.1227,-0.1058,-0.0954,-0.0735,-0.0603,-0.0601,-0.0228,-0.0541,-0.055,-0.0611,-0.061,-0.061,-0.061,-0.061,-0.133,-0.1325,-0.1416,-0.1444,-0.1451,-0.1429,-0.1259,-0.0974,-0.0819,-0.0685,-0.0198,-0.0551,-0.0498,-0.0493,-0.0498,-0.0542,-0.0542,-0.0542,-0.0542,-0.1404,-0.141,-0.153,-0.1593,-0.162,-0.1523,-0.135,-0.0987,-0.0416,-0.0102,-0.0019,0.0056,0.0042,0.0132,0.0123,0.0133,0.0251,0.0252,0.0254,-0.1472,-0.1506,-0.1602,-0.1659,-0.1695,-0.1608,-0.1405,-0.0903,-0.0053,0.0312,0.034,0.0306,0.0442,0.0398,0.0558,0.0522,0.0545,0,0]}],[{"header":{"parameterUnit":"m.s-1","parameterCategory":2,"la1":30.2992,"la2":30.254,"lo1":-89.0895,"lo2":-89.0443,"dy":0.0025,"dx":0.0025,"nx":19,"ny":19,"refTime":"2026-04-19T03:00:00:Z","depth":"2","parameterNumber":2,"parameterNumberName":"U-component_of_CURRENTS"},"data":[0,0,0,-0.3029,-0.303,-0.3069,-0.3069,-0.3071,-0.3071,0,0,0,0,0,0,0,0,0,0,0,-0.3004,-0.3004,-0.3029,-0.303,-0.3069,-0.3069,-0.3071,-0.3071,0,0,0,0,0,0,0,0,0,0,0,-0.3004,-0.3004,-0.3004,-0.303,-0.3069,-0.3069,-0.3071,-0.305,0,0,0,0,0,0,0,0,0,0,-0.3017,-0.2996,-0.3004,-0.3004,-0.3031,-0.3069,-0.3069,-0.305,-0.3052,-0.3043,0,-0.305,0,-0.307,-0.3071,-0.3071,0,0,0,-0.3019,-0.2994,-0.3019,-0.3004,-0.3031,-0.3069,-0.3048,-0.3051,-0.3053,-0.3045,-0.3051,-0.3051,-0.307,-0.3071,-0.3071,-0.3099,-0.3099,0,0,-0.3017,-0.2996,-0.3018,-0.302,-0.3043,-0.3047,-0.305,-0.3053,-0.3046,-0.3051,-0.3052,-0.307,-0.3071,-0.3071,-0.3098,-0.3099,0,0,0,-0.3018,-0.2994,-0.3019,-0.3019,-0.3036,-0.3048,-0.3051,-0.3045,-0.3058,-0.3052,-0.307,-0.3071,-0.3071,-0.3098,-0.3099,-0.3138,0,0,0,-0.3016,-0.2997,-0.3018,-0.3004,-0.3036,-0.3046,-0.3043,-0.3057,-0.3059,-0.307,-0.3071,-0.3071,-0.3098,-0.3098,-0.3137,-0.3126,0,0,0,-0.3002,-0.2995,-0.3003,-0.3004,-0.3029,-0.3047,-0.3058,-0.3058,-0.307,-0.3071,-0.3071,-0.3098,-0.3098,-0.3135,-0.3124,-0.3136,0,0,0,-0.2974,-0.2991,-0.3002,-0.3033,-0.3029,-0.3084,-0.3059,-0.3086,-0.3091,-0.3071,-0.3098,-0.3098,-0.3134,-0.3123,-0.3135,-0.3015,-0.3011,0,0,-0.2986,-0.2992,-0.3016,-0.3029,-0.3084,-0.3078,-0.3124,-0.3114,-0.3096,-0.309,-0.3091,-0.3137,-0.3124,-0.3136,-0.3057,-0.3051,0,0,0,-0.3015,-0.3024,-0.3046,-0.3079,-0.3122,-0.3142,-0.3148,-0.3143,-0.3139,-0.3105,-0.314,-0.313,-0.3137,-0.3063,-0.3059,-0.3102,-0.3102,-0.3102,-0.3102,-0.2976,-0.3024,-0.3055,-0.311,-0.3147,-0.3186,-0.3193,-0.3182,-0.3176,-0.3179,-0.3167,-0.3204,-0.3126,-0.3121,-0.3185,-0.3186,-0.3186,-0.3186,-0.3186,-0.2973,-0.2978,-0.3046,-0.3089,-0.3139,-0.3172,-0.3215,-0.3216,-0.3219,-0.3204,-0.321,-0.3112,-0.3119,-0.3189,-0.3189,-0.3188,-0.3188,-0.3188,-0.3187,-0.2915,-0.2919,-0.2963,-0.3021,-0.3076,-0.3146,-0.3172,-0.3223,-0.3226,-0.3238,-0.3153,-0.3151,-0.3211,-0.3253,-0.3253,-0.3253,-0.3253,-0.3253,-0.3253,-0.2812,-0.2861,-0.2864,-0.2952,-0.2972,-0.3044,-0.3149,-0.3163,-0.3176,-0.3163,-0.3162,-0.3226,-0.3223,-0.3214,-0.3253,-0.3253,-0.3253,-0.3253,-0.3253,-0.2691,-0.2727,-0.2727,-0.2747,-0.2822,-0.2812,-0.2994,-0.3032,-0.3081,-0.3053,-0.3117,-0.312,-0.3087,-0.3089,-0.3076,-0.3077,-0.3077,-0.3077,-0.3077,-0.2578,-0.2612,-0.2567,-0.2571,-0.2613,-0.269,-0.2601,-0.2579,-0.2704,-0.2692,-0.2708,-0.2653,-0.267,-0.261,-0.2623,-0.2598,-0.2475,-0.2474,-0.2472,-0.2462,-0.2488,-0.24,-0.245,-0.2495,-0.2495,-0.2302,-0.206,-0.2132,-0.2442,-0.2537,-0.3049,-0.3013,-0.3021,-0.2966,-0.2972,-0.2948,0,0]},{"header":{"parameterUnit":"m.s-1","parameterCategory":2,"la1":30.2992,"la2":30.254,"lo1":-89.0895,"lo2":-89.0443,"dy":0.0025,"dx":0.0025,"nx":19,"ny":19,"refTime":"2026-04-19T03:00:00:Z","depth":"2","parameterNumber":3,"parameterNumberName":"V-component_of_CURRENTS"},"data":[0,0,0,-0.0638,-0.0637,-0.0537,-0.0537,-0.0377,-0.0375,0,0,0,0,0,0,0,0,0,0,0,-0.0674,-0.0674,-0.0639,-0.0637,-0.0537,-0.0536,-0.0377,-0.0375,0,0,0,0,0,0,0,0,0,0,0,-0.0674,-0.0674,-0.0674,-0.0637,-0.0537,-0.0536,-0.0377,-0.0455,0,0,0,0,0,0,0,0,0,0,-0.0554,-0.0605,-0.0674,-0.0674,-0.0636,-0.0538,-0.0536,-0.0459,-0.0451,-0.0419,0,-0.0418,0,-0.04,-0.0366,-0.0365,0,0,0,-0.0616,-0.0613,-0.0584,-0.0674,-0.0636,-0.0538,-0.0576,-0.0455,-0.0445,-0.0407,-0.0416,-0.041,-0.0398,-0.0365,-0.0364,-0.0266,-0.0266,0,0,-0.0622,-0.0651,-0.0591,-0.0578,-0.0628,-0.058,-0.0574,-0.0449,-0.0447,-0.0415,-0.0406,-0.0395,-0.0364,-0.0363,-0.0266,-0.0266,0,0,0,-0.0651,-0.0656,-0.0629,-0.0585,-0.0573,-0.0577,-0.057,-0.0452,-0.0443,-0.0404,-0.0393,-0.0363,-0.0361,-0.0266,-0.0266,-0.0364,0,0,0,-0.0654,-0.0674,-0.0633,-0.0648,-0.0577,-0.0518,-0.0577,-0.0452,-0.0437,-0.0394,-0.0363,-0.036,-0.0266,-0.0266,-0.0361,-0.0402,0,0,0,-0.0676,-0.0676,-0.067,-0.065,-0.0616,-0.0519,-0.0503,-0.0448,-0.0431,-0.0365,-0.0359,-0.0266,-0.0266,-0.0359,-0.0398,-0.037,0,0,0,-0.07,-0.0725,-0.0671,-0.0691,-0.0617,-0.0577,-0.0503,-0.0461,-0.0413,-0.0362,-0.0266,-0.0266,-0.0358,-0.0395,-0.0368,-0.0301,-0.0304,0,0,-0.075,-0.0732,-0.0743,-0.0693,-0.0692,-0.0588,-0.0562,-0.047,-0.0397,-0.0301,-0.0298,-0.0362,-0.0397,-0.0369,-0.03,-0.0303,0,0,0,-0.0771,-0.0786,-0.0774,-0.0759,-0.07,-0.0643,-0.0542,-0.0483,-0.0397,-0.0371,-0.0334,-0.0352,-0.0332,-0.0287,-0.0289,-0.0266,-0.0266,-0.0266,-0.0266,-0.0875,-0.0844,-0.0868,-0.0823,-0.0785,-0.0672,-0.0612,-0.0507,-0.0437,-0.0412,-0.0412,-0.0431,-0.0385,-0.0385,-0.0387,-0.0388,-0.0388,-0.0388,-0.0389,-0.0974,-0.0996,-0.0943,-0.096,-0.0875,-0.0832,-0.0676,-0.0609,-0.0499,-0.0457,-0.0432,-0.0368,-0.0393,-0.0396,-0.0394,-0.0393,-0.0393,-0.0392,-0.0392,-0.1057,-0.1067,-0.1065,-0.1075,-0.1041,-0.0934,-0.0876,-0.0742,-0.0593,-0.057,-0.0452,-0.0449,-0.0479,-0.0542,-0.0542,-0.0542,-0.0542,-0.0543,-0.0543,-0.1148,-0.1144,-0.1199,-0.1193,-0.1198,-0.1156,-0.0987,-0.0884,-0.0668,-0.0537,-0.0535,-0.0481,-0.0476,-0.0484,-0.0544,-0.0544,-0.0543,-0.0543,-0.0543,-0.1257,-0.1254,-0.1343,-0.1371,-0.1377,-0.1345,-0.1184,-0.0904,-0.0752,-0.0621,-0.0485,-0.0486,-0.0433,-0.0429,-0.0433,-0.0476,-0.0476,-0.0476,-0.0476,-0.1331,-0.1337,-0.1457,-0.1518,-0.1544,-0.1434,-0.1249,-0.0899,-0.0581,-0.0412,-0.0415,-0.0388,-0.0391,-0.0333,-0.0331,-0.0333,-0.035,-0.035,-0.0349,-0.1399,-0.1433,-0.1528,-0.1584,-0.1617,-0.1507,-0.1274,-0.081,-0.0385,-0.0347,-0.0422,-0.0462,-0.0427,-0.0431,-0.0343,-0.034,-0.0343,0,0]}],[{"header":{"parameterUnit":"m.s-1","parameterCategory":2,"la1":30.2992,"la2":30.254,"lo1":-89.0895,"lo2":-89.0443,"dy":0.0025,"dx":0.0025,"nx":19,"ny":19,"refTime":"2026-04-19T03:00:00:Z","depth":"4","parameterNumber":2,"parameterNumberName":"U-component_of_CURRENTS"},"data":[0,0,0,-0.2094,-0.2097,-0.2267,-0.2267,-0.237,-0.2371,0,0,0,0,0,0,0,0,0,0,0,-0.2041,-0.2042,-0.2093,-0.2098,-0.2266,-0.2267,-0.237,-0.2371,0,0,0,0,0,0,0,0,0,0,0,-0.204,-0.2042,-0.2044,-0.2098,-0.2266,-0.2267,-0.237,-0.2271,0,0,0,0,0,0,0,0,0,0,-0.2121,-0.2091,-0.2042,-0.2044,-0.2099,-0.2266,-0.2267,-0.2267,-0.2277,-0.2261,0,-0.2299,0,-0.2332,-0.2375,-0.2375,0,0,0,-0.2099,-0.2083,-0.2125,-0.2044,-0.2101,-0.2266,-0.2191,-0.2274,-0.2284,-0.2273,-0.2301,-0.2306,-0.2334,-0.2375,-0.2376,-0.2461,-0.2462,0,0,-0.209,-0.2071,-0.2118,-0.2132,-0.2158,-0.2185,-0.2196,-0.2281,-0.2297,-0.2301,-0.2309,-0.2336,-0.2376,-0.2376,-0.2461,-0.2462,0,0,0,-0.2062,-0.2064,-0.2107,-0.2127,-0.2165,-0.219,-0.2202,-0.2294,-0.2308,-0.231,-0.2337,-0.2376,-0.2377,-0.246,-0.2461,-0.2511,0,0,0,-0.2056,-0.2048,-0.2103,-0.2094,-0.2164,-0.2247,-0.2213,-0.2303,-0.2313,-0.2336,-0.2376,-0.2377,-0.246,-0.2461,-0.2509,-0.2502,0,0,0,-0.2031,-0.2045,-0.2069,-0.2092,-0.2164,-0.2247,-0.2268,-0.2306,-0.2329,-0.2375,-0.2378,-0.246,-0.2461,-0.2507,-0.2499,-0.2515,0,0,0,-0.1999,-0.2037,-0.2069,-0.2127,-0.2163,-0.2264,-0.2268,-0.2353,-0.2399,-0.2376,-0.246,-0.2461,-0.2506,-0.2497,-0.2514,-0.2209,0,0,0,-0.2021,-0.204,-0.2074,-0.2106,-0.2195,-0.2239,-0.2333,-0.2396,-0.2404,-0.2422,-0.2426,-0.251,-0.2499,-0.2515,-0.2278,0,0,0,0,-0.2063,-0.2087,-0.2122,-0.2189,-0.2263,-0.2338,-0.2406,-0.2429,-0.2487,-0.2437,-0.2519,-0.251,-0.2518,-0.2337,-0.2467,-0.2467,-0.2466,-0.2466,-0.2466,-0.2044,-0.2098,-0.2158,-0.2236,-0.2308,-0.2413,-0.2464,-0.2504,-0.2521,-0.2556,-0.2559,-0.2611,-0.2423,-0.2582,-0.2582,-0.2583,-0.2583,-0.2583,-0.2583,-0.2048,-0.2065,-0.2168,-0.2246,-0.2342,-0.2429,-0.2522,-0.2556,-0.2607,-0.2607,-0.2614,-0.2412,-0.2588,-0.2587,-0.2586,-0.2586,-0.2585,-0.2585,-0.2585,-0.199,-0.2002,-0.2088,-0.2203,-0.2323,-0.2443,-0.2498,-0.2594,-0.2632,-0.2655,-0.2464,-0.2634,-0.262,-0.268,-0.268,-0.268,-0.268,-0.268,-0.268,-0.187,-0.1955,-0.2012,-0.2158,-0.223,-0.2345,-0.2503,-0.2517,-0.2604,-0.2465,-0.2676,-0.2643,-0.264,-0.2625,-0.2681,-0.2681,-0.2681,-0.2681,-0.2681,-0.1749,-0.1817,-0.1873,-0.1948,-0.2099,-0.216,-0.2364,-0.2344,-0.2343,-0.2266,-0.2353,-0.2369,-0.2313,-0.2318,-0.2289,-0.2248,-0.2244,-0.224,0,-0.1644,-0.169,-0.1735,-0.1797,-0.1847,-0.2028,-0.1953,-0.2023,-0.2091,-0.2028,-0.2334,-0.2433,-0.2441,-0.2381,-0.238,-0.2345,0,0,0,-0.1551,-0.1588,-0.1567,-0.167,-0.1715,-0.177,-0.1918,-0.1859,-0.2101,-0.2,-0.2146,-0.2171,-0.248,-0.2684,-0.2636,-0.2633,-0.2605,0,0]},{"header":{"parameterUnit":"m.s-1","parameterCategory":2,"la1":30.2992,"la2":30.254,"lo1":-89.0895,"lo2":-89.0443,"dy":0.0025,"dx":0.0025,"nx":19,"ny":19,"refTime":"2026-04-19T03:00:00:Z","depth":"4","parameterNumber":3,"parameterNumberName":"V-component_of_CURRENTS"},"data":[0,0,0,-0.034,-0.0339,-0.0294,-0.0294,-0.019,-0.0189,0,0,0,0,0,0,0,0,0,0,0,-0.0356,-0.0357,-0.034,-0.0339,-0.0294,-0.0294,-0.019,-0.0189,0,0,0,0,0,0,0,0,0,0,0,-0.0356,-0.0357,-0.0357,-0.0339,-0.0294,-0.0294,-0.019,-0.0232,0,0,0,0,0,0,0,0,0,0,-0.028,-0.0314,-0.0357,-0.0357,-0.0339,-0.0294,-0.0293,-0.0234,-0.0229,-0.0203,0,-0.021,0,-0.0203,-0.0183,-0.0182,0,0,0,-0.0322,-0.0319,-0.0303,-0.0357,-0.0339,-0.0294,-0.031,-0.0232,-0.0226,-0.0196,-0.0208,-0.0205,-0.0201,-0.0182,-0.0182,-0.0121,-0.0121,0,0,-0.0325,-0.0345,-0.0307,-0.03,-0.0344,-0.0311,-0.0308,-0.0229,-0.0231,-0.0208,-0.0202,-0.02,-0.0181,-0.0181,-0.0121,-0.0121,0,0,0,-0.0343,-0.0347,-0.0334,-0.0304,-0.0303,-0.031,-0.0307,-0.0234,-0.023,-0.0201,-0.0198,-0.0181,-0.018,-0.0121,-0.0121,-0.0204,0,0,0,-0.0344,-0.0359,-0.0336,-0.0347,-0.0306,-0.0276,-0.0315,-0.0235,-0.0226,-0.0199,-0.0181,-0.0179,-0.0121,-0.0121,-0.0202,-0.0231,0,0,0,-0.0356,-0.036,-0.036,-0.0348,-0.0336,-0.0278,-0.0268,-0.0233,-0.0225,-0.0182,-0.0179,-0.0121,-0.0121,-0.02,-0.0227,-0.0199,0,0,0,-0.037,-0.0397,-0.0361,-0.0388,-0.0337,-0.0326,-0.0268,-0.0253,-0.0225,-0.018,-0.0121,-0.0121,-0.0199,-0.0225,-0.0198,-0.0214,0,0,0,-0.0414,-0.0402,-0.0418,-0.0385,-0.0404,-0.033,-0.0327,-0.0267,-0.0212,-0.014,-0.0139,-0.0203,-0.0227,-0.0199,-0.0221,0,0,0,0,-0.0438,-0.0455,-0.0453,-0.0455,-0.0424,-0.0393,-0.0327,-0.0283,-0.0225,-0.0198,-0.0182,-0.0193,-0.0173,-0.0178,-0.0121,-0.0121,-0.0121,-0.0121,-0.0121,-0.0516,-0.0503,-0.0535,-0.0517,-0.05,-0.043,-0.039,-0.0312,-0.0263,-0.0247,-0.0247,-0.0262,-0.0272,-0.0231,-0.0232,-0.0232,-0.0233,-0.0233,-0.0233,-0.0592,-0.0612,-0.0596,-0.0627,-0.058,-0.0565,-0.0451,-0.0402,-0.0314,-0.0287,-0.0263,-0.0249,-0.0241,-0.0239,-0.0238,-0.0237,-0.0236,-0.0236,-0.0236,-0.0643,-0.0653,-0.0676,-0.0713,-0.0715,-0.0652,-0.0611,-0.0513,-0.0392,-0.0372,-0.0324,-0.029,-0.0297,-0.0351,-0.0351,-0.0351,-0.0351,-0.0351,-0.0351,-0.0682,-0.0703,-0.0768,-0.08,-0.0829,-0.0817,-0.0702,-0.062,-0.0486,-0.0402,-0.0384,-0.03,-0.0296,-0.0301,-0.0352,-0.0352,-0.0352,-0.0351,-0.0351,-0.0734,-0.0754,-0.0847,-0.0899,-0.0951,-0.0929,-0.084,-0.0644,-0.0547,-0.0438,-0.039,-0.0388,-0.0343,-0.0338,-0.0342,-0.0407,-0.0407,-0.0408,0,-0.0766,-0.0783,-0.0908,-0.0987,-0.1025,-0.0981,-0.0857,-0.0732,-0.0547,-0.0547,-0.0545,-0.05,-0.0495,-0.0455,-0.045,-0.0462,0,0,0,-0.0796,-0.0835,-0.0921,-0.1005,-0.105,-0.0905,-0.0816,-0.0741,-0.059,-0.0477,-0.0417,-0.0415,-0.0431,-0.0353,-0.0278,-0.0273,-0.0275,0,0]}]]